Location: *
(45.6833°S, 170.3833°W)
Time: 04:38:39
(UTC+00:00)

Daily predictions for brighter satellites

Satellite Brightness Start Highest point End
(mag) Time Altitude Azimuth Time Altitude Azimuth Time Altitude Azimuth
STARLINK-1278 4.0 04:15:42 10° NW 04:19:57 61° NE 04:24:14 10° ESE
STARLINK-1272 3.6 04:17:18 10° WNW 04:20:40 54° SSW 04:24:04 10° SE
STARLINK-64 3.3 04:17:41 10° NW 04:21:17 72° NE 04:24:54 10° ESE
STARLINK-1262 4.1 04:17:33 10° NW 04:21:37 52° NE 04:25:44 10° ESE
STARLINK-1280 4.0 04:17:32 10° NW 04:21:47 62° NE 04:26:05 10° ESE
Cosmos 1606 4.5 04:18:24 10° SSW 04:22:07 38° W 04:25:47 10° NNW
STARLINK-1207 3.6 04:19:13 10° WNW 04:22:35 52° SSW 04:25:59 10° SE
Cosmos 1340 2.8 04:19:06 10° N 04:22:51 59° E 04:26:39 10° SSE
Cosmos 1844 3.7 04:17:56 10° SSW 04:23:36 88° ESE 04:29:11 10° NNE
Cosmos 2219 Rocket 2.6 04:18:47 10° N 04:24:11 46° ENE 04:29:38 10° SE
STARLINK-1266 3.6 04:21:11 10° WNW 04:24:33 51° SSW 04:27:56 10° SE
Iridium 4 Rocket 3.7 04:19:29 10° N 04:24:58 84° W 04:30:02 10° S
ALOS 2.3 04:21:01 10° SSE 04:25:49 78° ENE 04:30:31 10° N
H-2A R/B 2.5 04:22:01 10° SSE 04:26:11 58° E 04:30:09 10° N
STARLINK-1284 3.7 04:23:10 10° WNW 04:26:32 49° SSW 04:29:54 10° SE
STARLINK-1300 4.0 04:22:26 10° NW 04:26:33 57° NE 04:30:42 10° ESE
Starlink 7 placeholder 3.0 04:23:52 10° WSW 04:26:56 72° NW 04:29:52 10° NE
STARLINK-66 4.1 04:24:08 10° W 04:27:12 35° SSW 04:30:17 10° SE
Cosmos 1680 Rocket 4.3 04:22:44 10° NNE 04:27:27 33° E 04:32:11 10° SE
Shenzhou-11 Module 3.4 04:26:12 10° NW 04:28:21 23° NNE 04:30:30 10° ENE
STARLINK-1258 3.7 04:25:06 10° W 04:28:27 48° SSW 04:31:49 10° SE
Cosmos 923 Rocket 4.4 04:25:04 10° N 04:30:10 46° ENE 04:35:20 10° SSE
STARLINK-1292 3.8 04:27:05 10° W 04:30:26 47° SSW 04:33:48 10° SE
CZ-4B R/B 4.4 04:26:26 10° S 04:30:29 62° WSW 04:34:17 10° NNW
Meteor 2-6 Rocket 4.3 04:25:50 10° S 04:31:14 54° ESE 04:36:41 10° NNE
STARLINK-1295 3.9 04:27:25 10° NW 04:31:33 62° NE 04:35:39 10° ESE
STARLINK-1274 3.8 04:29:06 10° W 04:32:26 46° SSW 04:35:46 10° SE
STARLINK-52 3.5 04:29:16 10° SW 04:32:27 43° SSE 04:35:36 10° E
CZ-4C R/B 4.4 04:28:04 10° WSW 04:33:19 20° SSW 04:37:58 10° SSE
STARLINK-1338 4.4 04:30:08 10° SW 04:33:23 28° S 04:36:25 11° ESE
STARLINK-1289 3.8 04:31:09 10° W 04:34:28 45° SSW 04:37:43 11° SE
Cosmos 1500 Rocket 3.6 04:31:35 10° N 04:36:00 89° WSW 04:40:26 10° S
FALCON 9 DEB 3.8 04:32:57 10° SW 04:36:19 38° SSE 04:39:35 10° E
STARLINK-1303 3.9 04:33:07 10° W 04:36:27 44° SSW 04:39:37 11° SE
Cosmos 1782 2.9 04:32:22 10° S 04:36:27 84° W 04:40:28 10° N
STARLINK-1287 3.8 04:32:20 10° NW 04:36:29 67° NE 04:40:24 12° ESE
STARLINK-75 4.1 04:35:18 10° W 04:38:19 33° SSW 04:41:08 11° SE
STARLINK-1312 3.9 04:35:08 10° W 04:38:26 43° SSW 04:41:32 12° SE
Cosmos 1862 3.8 04:34:42 10° NNE 04:38:29 39° E 04:42:20 10° SSE
STARLINK-1371 4.4 04:35:31 10° SW 04:38:48 29° SSE 04:41:37 13° ESE
Cosmos 2322 Rocket 3.8 04:35:52 10° WNW 04:40:55 31° SW 04:46:02 10° S
STARLINK-1341 4.4 04:38:11 10° SW 04:41:30 30° SSE 04:44:13 13° ESE
SL-4 R/B 2.1 04:37:57 10° WSW 04:41:38 71° NNW 04:45:34 10° NE
STARLINK-1374 4.3 04:40:48 10° SW 04:44:07 30° SSE 04:46:42 14° ESE
STARLINK-58 3.7 04:41:52 10° W 04:45:00 45° SSW 04:47:38 14° SE
Cosmos 1238 Rocket 4.2 04:42:43 10° NE 04:46:01 20° E 04:48:23 13° SE
Envisat 4.2 04:42:10 10° SE 04:46:02 21° E 04:49:51 10° NE
Cosmos 1805 Rocket 3.7 04:42:00 10° N 04:46:19 56° E 04:50:43 10° SSE
STARLINK-1302 3.7 04:42:15 10° NW 04:46:26 78° NNE 04:49:59 14° ESE
STARLINK-1339 4.3 04:43:29 10° SW 04:46:50 31° SSE 04:49:19 15° ESE
STARLINK-22 4.1 04:44:53 10° W 04:47:55 34° SSW 04:50:24 14° SE
STARLINK-1377 4.3 04:45:50 10° SW 04:49:10 31° SSE 04:51:30 16° ESE
Cosmos 2123 Rocket 4.1 04:44:28 10° S 04:50:47 89° WNW 04:57:03 10° N
STARLINK-1273 3.6 04:47:13 10° NW 04:51:25 84° NNE 04:54:46 16° ESE
STARLINK-1353 4.3 04:48:30 10° SW 04:51:51 32° SSE 04:54:05 17° ESE
Meteor 1-27 Rocket 4.1 04:47:14 10° S 04:52:55 45° ESE 04:58:35 10° NE
STARLINK-1320 4.0 04:50:28 10° SW 04:53:21 30° SSE 04:55:00 19° ESE
USA 234 3.6 04:47:02 10° SE 04:53:33 62° SSW 05:00:02 10° WNW
STARLINK-80 4.4 04:49:57 10° W 04:53:35 38° SSW 04:56:25 15° SE
STARLINK-1322 4.0 04:50:46 10° SW 04:53:40 30° SSE 04:55:18 19° ESE
Cosmos 1812 3.0 04:50:07 10° S 04:53:55 44° ESE 04:57:38 10° NNE
STARLINK-1324 4.0 04:51:08 10° SW 04:54:01 30° SSE 04:55:38 19° ESE
STARLINK-1294 4.0 04:51:30 10° SW 04:54:22 30° SSE 04:55:55 19° ESE
STARLINK-1261 4.0 04:51:47 10° SW 04:54:42 30° SSE 04:56:16 19° ESE
COSMOS 2428 2.7 04:49:09 10° NNW 04:54:52 72° ENE 05:00:40 10° SSE
STARLINK-1375 4.2 04:51:31 10° SW 04:54:55 33° SSE 04:57:03 18° ESE
STARLINK-1325 4.0 04:52:07 10° SW 04:55:01 30° SSE 04:56:35 20° ESE
STARLINK-1333 3.9 04:52:30 10° SW 04:55:25 30° SSE 04:56:57 20° ESE
STARLINK-1334 3.9 04:52:49 10° SW 04:55:44 30° SSE 04:57:16 20° ESE
STARLINK-1326 3.9 04:53:10 10° SW 04:56:04 30° SSE 04:57:35 20° ESE
Cosmos 1461 3.2 04:52:23 10° SSW 04:56:10 38° SE 04:59:49 10° ENE
STARLINK-1288 3.6 04:52:10 10° WNW 04:56:23 89° NNE 04:59:32 18° ESE
STARLINK-1323 3.9 04:53:28 10° SW 04:56:23 30° SSE 04:57:54 20° ESE
STARLINK-1349 3.9 04:53:51 10° SW 04:56:46 31° SSE 04:58:15 20° ESE
STARLINK-1336 3.9 04:54:10 10° SW 04:57:05 31° SSE 04:58:33 21° ESE
STARLINK-1350 4.2 04:53:54 10° SW 04:57:17 33° SSE 04:59:16 19° ESE
STARLINK-1331 3.9 04:54:32 10° SW 04:57:28 31° SSE 04:58:55 21° ESE
ADEOS Rocket 4.1 04:50:01 10° N 04:57:33 67° WNW 05:05:27 10° SSW
STARLINK-1344 3.9 04:54:54 10° SW 04:57:49 31° SSE 04:59:15 21° ESE
STARLINK-1343 3.9 04:55:10 10° SW 04:58:05 31° SSE 04:59:32 21° ESE
STARLINK-1346 3.9 04:55:36 10° SW 04:58:29 31° SSE 04:59:50 22° ESE
STARLINK-1328 3.9 04:55:51 10° SW 04:58:46 31° SSE 05:00:11 21° ESE
STARLINK-1354 3.9 04:56:10 10° SW 04:59:06 31° SSE 05:00:29 22° ESE
STARLINK-1347 3.9 04:56:32 10° SW 04:59:28 31° SSE 05:00:51 22° ESE
STARLINK-1357 3.9 04:56:52 10° SW 04:59:48 31° SSE 05:01:09 22° ESE
STARLINK-1352 4.2 04:56:38 10° SW 05:00:02 34° SSE 05:01:54 21° ESE
STARLINK-1335 3.9 04:57:16 10° SW 05:00:12 31° SSE 05:01:32 22° ESE
STARLINK-1327 3.9 04:57:32 10° SW 05:00:28 32° SSE 05:01:48 22° ESE
ATLAS 5 CENTAUR R/B 3.5 04:54:22 10° N 05:00:33 32° ENE 05:04:51 17° ESE
STARLINK-1340 3.9 04:57:52 10° SW 05:00:49 32° SSE 05:02:08 23° ESE
STARLINK-1356 3.9 04:58:13 10° SW 05:01:10 32° SSE 05:02:28 23° ESE
STARLINK-1308 3.6 04:57:11 10° WNW 05:01:24 84° SSW 05:04:21 19° ESE
STARLINK-1345 3.9 04:58:33 10° SW 05:01:30 32° SSE 05:02:47 23° ESE
STARLINK-1355 3.9 04:58:53 10° SW 05:01:50 32° SSE 05:03:06 23° ESE
STARLINK-1321 3.8 04:59:15 10° SW 05:02:11 32° SSE 05:03:27 23° ESE
STARLINK-1283 4.5 04:58:52 10° W 05:02:27 35° SSW 05:04:52 18° SE
STARLINK-1358 3.8 04:59:33 10° SW 05:02:31 32° SSE 05:03:45 24° ESE
STARLINK-1368 4.1 04:59:23 10° SW 05:02:48 34° SSE 05:04:33 22° ESE
STARLINK-1332 3.8 04:59:58 10° SW 05:02:55 32° SSE 05:04:08 24° ESE
STARLINK-1348 3.8 05:00:16 10° SW 05:03:13 32° SSE 05:04:26 24° ESE
STARLINK-1330 3.8 05:00:34 10° SW 05:03:31 32° SSE 05:04:43 24° ESE
STARLINK-60 3.8 05:00:23 10° WSW 05:03:35 52° NW 05:06:45 10° NE
STARLINK-1311 4.3 05:00:59 10° WSW 05:03:41 27° SSW 05:05:12 18° SSE
Cosmos 1624 Rocket 4.2 04:58:42 10° SSW 05:03:50 47° ESE 05:08:54 10° NE
STARLINK-1363 3.8 05:00:58 10° SW 05:03:56 33° SSE 05:05:07 24° ESE
Lacrosse 5 rocket 3.5 05:02:09 10° NE 05:04:05 13° ENE 05:04:38 13° ENE
STARLINK-1337 3.8 05:01:15 10° SW 05:04:13 33° SSE 05:05:23 25° ESE
STARLINK-1342 3.8 05:01:36 10° SW 05:04:33 33° SSE 05:05:43 25° ESE
STARLINK-79 4.5 05:01:15 10° NNW 05:04:45 32° NE 05:06:37 21° E
STARLINK-1364 3.8 05:01:55 10° SW 05:04:53 33° SSE 05:06:01 25° ESE
STARLINK-1376 3.8 05:02:17 10° SW 05:05:15 33° SSE 05:06:22 25° ESE
COSMO-SKYMED 1 3.9 05:01:09 10° N 05:05:20 44° W 05:09:35 10° SSW
STARLINK-1360 3.8 05:02:36 10° SW 05:05:34 33° SSE 05:06:40 25° ESE
STARLINK-1369 4.1 05:02:08 10° SW 05:05:35 35° SSE 05:07:13 23° ESE
STARLINK-1361 3.8 05:02:55 10° SW 05:05:53 33° SSE 05:06:59 26° ESE
STARLINK-1367 3.8 05:03:18 10° SW 05:06:14 33° SSE 05:07:16 26° ESE
STARLINK-78 4.4 05:02:50 10° NNW 05:06:22 33° NE 05:08:11 22° E
STARLINK-1366 3.8 05:03:40 10° SW 05:06:39 34° SSE 05:07:42 26° ESE
CZ-4B R/B 3.4 05:01:43 10° SSE 05:07:04 50° E 05:12:26 10° N
Cosmos 2237 Rocket 2.8 05:02:09 10° N 05:07:17 36° ENE 05:11:03 17° SE
Cosmos 1943 Rocket 4.0 05:05:24 10° SSE 05:07:26 12° SE 05:07:26 12° SE
STARLINK-57 4.3 05:04:30 10° NNW 05:08:06 36° NE 05:09:54 23° E
STARLINK-61 3.5 05:04:08 10° NW 05:08:06 81° NE 05:10:27 23° ESE
STARLINK-1372 4.0 05:04:55 10° SW 05:08:23 36° SSE 05:09:53 25° ESE
Cosmos 2369 Rocket 4.2 05:07:59 10° SSE 05:08:40 10° SSE 05:08:42 10° SSE
Cosmos 1707 Rocket 3.5 05:04:45 10° S 05:09:14 64° E 05:13:37 10° NNE
STARLINK-49 4.3 05:06:05 10° NNW 05:09:39 35° NE 05:11:22 23° E
STARLINK-1316 4.3 05:06:57 10° WSW 05:09:48 28° SSW 05:11:15 20° SSE
Cosmos 1633 4.4 05:07:08 10° NW 05:10:27 32° WSW 05:13:48 10° S
SL-16 R/B 4.4 05:06:44 10° W 05:10:38 18° SW 05:14:34 10° S
STARLINK-1257 4.3 05:07:54 10° WSW 05:10:44 28° SSW 05:12:08 20° SSE
STARLINK-27 4.3 05:07:39 10° NNW 05:11:14 36° NE 05:12:53 24° E
STARLINK-1304 3.7 05:07:09 10° WNW 05:11:21 75° SSW 05:13:54 23° SE
STARLINK-1378 4.0 05:07:58 10° SW 05:11:28 37° SSE 05:12:53 27° ESE
STARLINK-1256 4.4 05:08:48 10° WSW 05:11:38 28° SSW 05:13:00 20° SSE
STARLINK-1213 4.4 05:09:43 10° WSW 05:12:33 28° SSW 05:13:52 21° SSE
STARLINK-74 4.2 05:09:16 10° NNW 05:12:52 37° NE 05:14:28 25° E
Meteor 2-20 Rocket 4.5 05:06:59 10° S 05:13:17 90° WSW 05:19:30 10° N
STARLINK-1263 4.4 05:10:38 10° WSW 05:13:27 28° SSW 05:14:44 21° SSE
STARLINK-1286 3.8 05:09:26 10° WNW 05:13:39 71° SSW 05:16:08 24° SE
STARLINK-1329 4.0 05:10:15 10° SW 05:13:45 38° SSE 05:15:02 28° ESE
STARLINK-1379 4.0 05:10:31 10° SW 05:14:01 38° SSE 05:15:16 28° ESE
STARLINK-1259 4.4 05:11:32 10° WSW 05:14:21 27° SSW 05:15:35 21° SSE
STARLINK-39 4.2 05:10:52 10° NNW 05:14:30 38° NE 05:16:02 26° E
STARLINK-1265 4.4 05:12:05 10° WSW 05:14:51 27° SSW 05:16:03 21° SSE
STARLINK-1285 4.4 05:12:26 10° WSW 05:15:15 27° SSW 05:16:27 21° SSE
STARLINK-1268 4.4 05:13:05 10° WSW 05:15:52 27° SSW 05:17:02 21° SSE
STARLINK-31 4.1 05:12:28 10° NNW 05:16:08 40° NE 05:17:37 28° E
STARLINK-1362 3.9 05:13:25 10° SW 05:16:59 40° SSE 05:18:12 30° ESE
STARLINK-1296 4.4 05:14:18 10° WSW 05:17:06 27° SSW 05:18:13 22° SSE
STARLINK-1365 3.9 05:13:38 10° SW 05:17:13 41° SSE 05:18:25 30° ESE
STARLINK-69 4.0 05:14:12 10° NNW 05:17:54 44° NE 05:19:23 29° E
STARLINK-1260 4.4 05:15:12 10° WSW 05:18:00 27° SSW 05:19:04 22° SSE
ATLAS CENTAUR R/B 3.7 05:16:41 10° S 05:18:35 12° SSE 05:18:35 12° SSE
STARLINK-1007 4.4 05:14:54 10° NNW 05:18:45 36° NE 05:20:16 27° E
STARLINK-1318 4.4 05:16:08 10° WSW 05:18:55 26° SSW 05:19:57 22° SSE
Cosmos 1371 Rocket 4.0 05:13:29 10° SSW 05:18:56 72° ESE 05:24:18 10° NNE
STARLINK-21 4.0 05:15:43 10° NNW 05:19:24 43° NE 05:20:47 30° E
STARLINK-1275 4.4 05:16:59 10° WSW 05:19:46 26° SSW 05:20:46 22° SSE
STARLINK-1373 3.9 05:16:13 10° SW 05:19:47 41° SSE 05:20:51 32° ESE
STARLINK-1309 4.4 05:17:54 10° WSW 05:20:41 26° SSW 05:21:39 22° SSE
STARLINK-45 3.8 05:17:27 10° NW 05:21:12 48° NE 05:22:35 32° E
STARLINK-1282 4.4 05:18:50 10° WSW 05:21:37 26° SSW 05:22:32 22° SSE
STARLINK-1390 3.8 05:18:53 10° SW 05:22:27 41° SSE 05:23:22 34° ESE
STARLINK-1313 4.5 05:19:57 10° WSW 05:22:42 25° SSW 05:23:32 22° SSE
STARLINK-70 3.8 05:19:03 10° NW 05:22:48 48° NE 05:24:06 33° E
STARLINK-62 4.3 05:20:01 10° W 05:22:57 30° SSW 05:23:57 24° SSE
Cosmos 1862 Rocket 3.9 05:18:49 10° S 05:23:12 43° ESE 05:27:31 10° NNE
SL-16 R/B 3.6 05:19:25 10° NE 05:22:27 18° ENE 05:22:27 18° ENE
STARLINK-1279 4.5 05:20:57 10° WSW 05:23:40 25° SSW 05:24:28 22° SSE
STARLINK-1048 4.3 05:19:47 10° NNW 05:23:42 39° NE 05:25:02 30° E
STARLINK-1029 4.1 05:21:20 10° W 05:24:17 33° SSW 05:25:14 27° SSE
STARLINK-1298 4.4 05:21:34 10° WSW 05:24:19 26° SSW 05:25:07 23° SSE
STARLINK-76 3.9 05:20:36 10° NW 05:24:19 47° NE 05:25:32 34° E
STARLINK-71 3.9 05:20:34 10° NW 05:24:31 51° NE 05:25:57 33° E
STARLINK-34 4.3 05:21:59 10° W 05:24:54 29° SSW 05:25:50 25° SSE
Cosmos 158 Rocket 4.0 05:19:46 10° NNW 05:24:57 88° ENE 05:30:06 11° SSE
STARLINK-1293 4.4 05:22:31 10° WSW 05:25:16 25° SSW 05:26:02 23° SSE
STARLINK-23 3.8 05:22:12 10° NW 05:25:58 48° NE 05:27:06 36° E
STARLINK-1255 4.4 05:24:20 10° WSW 05:27:04 25° SSW 05:27:44 23° S
Cosmos 405 4.0 05:23:56 10° SSW 05:27:24 48° W 05:30:50 10° N
Cosmos 2333 Rocket 2.8 05:21:52 10° NW 05:27:34 58° WSW 05:33:19 10° SSE
STARLINK-32 3.8 05:23:49 10° NW 05:27:35 50° NE 05:28:40 37° E
STARLINK-1299 4.1 05:23:23 10° WNW 05:27:38 55° SSW 05:29:38 29° SE
STARLINK-1306 4.0 05:23:53 10° WNW 05:28:05 59° SSW 05:30:01 30° SE
Cosmos 2112 Rocket 4.0 05:23:08 10° NNW 05:28:28 87° WSW 05:33:30 12° SSE
Okean O Rocket 1.5 05:24:09 10° SSE 05:28:38 79° ENE 05:33:07 10° N
STARLINK-1049 4.2 05:24:40 10° NNW 05:28:39 43° NE 05:29:49 34° E
H-2A R/B 2.7 05:25:18 11° SSE 05:29:06 85° ENE 05:33:01 10° NNW
STARLINK-40 3.7 05:25:29 10° NW 05:29:16 51° NE 05:30:18 39° E
STARLINK-44 3.7 05:27:03 10° NW 05:30:50 53° NE 05:31:48 40° E
STARLINK-1281 4.0 05:27:09 10° WNW 05:31:18 59° SSW 05:33:02 32° SE
Cosmos 2278 Rocket 2.1 05:25:38 10° SSW 05:31:23 83° ESE 05:37:05 10° NNE
Cosmos 1605 Rocket 4.3 05:25:18 10° NNW 05:31:31 70° W 05:37:43 10° S
STARLINK-29 3.5 05:29:10 10° WSW 05:32:27 59° NW 05:33:59 28° NE
STARLINK-37 3.6 05:28:51 10° NW 05:32:41 58° NE 05:33:38 43° E
STARLINK-1051 4.1 05:29:36 10° NNW 05:33:37 47° NE 05:34:37 38° E
Sich 1 3.5 05:29:26 10° NNW 05:33:48 63° W 05:38:16 10° S
STARLINK-36 3.6 05:30:18 10° NW 05:34:06 56° NE 05:34:57 44° E
STARLINK-68 3.5 05:32:07 10° NW 05:35:56 63° NE 05:36:47 48° E
STARLINK-1310 4.1 05:32:10 10° WNW 05:36:18 55° SSW 05:37:49 35° SE
SMAP 3.1 05:32:36 16° SSE 05:36:22 61° E 05:41:00 10° N
STARLINK-63 3.5 05:33:42 10° NW 05:37:32 62° NE 05:38:18 49° E
STARLINK-35 3.5 05:35:13 10° NW 05:39:02 61° NE 05:39:42 51° E
STARLINK-51 3.5 05:36:54 10° NW 05:40:45 64° NE 05:41:22 54° E
STARLINK-1319 4.1 05:37:11 10° WNW 05:41:18 52° SSW 05:42:36 37° SSE
STARLINK-30 3.4 05:38:31 10° NW 05:42:23 65° NE 05:42:55 56° E
STARLINK-1028 3.8 05:39:28 10° NW 05:43:33 55° NE 05:44:12 49° ENE
STARLINK-72 3.4 05:40:13 10° NW 05:44:05 67° NE 05:44:35 59° E
Cosmos 2360 Rocket 4.3 05:40:55 10° W 05:45:10 21° SW 05:49:26 10° S
STARLINK-1277 4.2 05:42:10 10° W 05:46:17 50° SSW 05:47:22 39° SSE
Cosmos 2056 Rocket 3.6 05:41:59 10° SSW 05:47:24 79° WNW 05:52:39 10° NNE
STARLINK-59 3.3 05:43:32 10° NW 05:47:25 74° NE 05:47:48 66° E
STARLINK-1021 3.7 05:44:23 10° NW 05:48:30 60° NE 05:48:58 56° ENE
STARLINK-56 3.3 05:45:05 10° NW 05:48:58 73° NE 05:49:17 68° ENE
ATLAS 2AS CENTAUR R/B 3.2 05:43:57 10° SSW 05:49:56 36° SE 05:51:06 34° ESE
STARLINK-73 3.3 05:46:44 10° NW 05:50:36 75° NNE 05:50:52 71° ENE
STARLINK-1276 4.3 05:47:12 10° W 05:51:18 47° SSW 05:52:09 41° SSE
STARLINK-38 3.3 05:48:22 10° NW 05:52:16 78° NNE 05:52:27 75° ENE
CZ-2C R/B 3.1 05:53:39 40° SE 05:53:39 40° SE 05:58:13 10° S
STARLINK-1019 3.6 05:49:20 10° NW 05:53:30 65° NE 05:53:46 63° ENE
STARLINK-24 3.4 05:49:45 10° NW 05:53:50 84° NE 05:54:10 73° ESE
STARLINK-65 3.3 05:50:02 10° NW 05:53:56 79° NE 05:54:03 78° ENE
STARLINK-53 3.3 05:51:56 10° NW 05:55:51 85° NE 05:55:57 83° ENE
STARLINK-1305 4.3 05:52:14 10° W 05:56:18 45° SSW 05:56:57 42° S
STARLINK-25 3.3 05:53:30 10° NW 05:57:08 79° N 05:57:08 79° N
STARLINK-1012 3.5 05:54:17 10° NW 05:58:27 70° NE 05:58:32 70° NE
Cosmos 1818 3.5 05:53:10 10° NW 05:58:36 85° SW 06:00:42 39° SSE
STARLINK-1278 4.5 05:56:02 10° W 06:00:10 41° SSW 06:00:43 39° S
Cosmos 1933 Rocket 4.3 05:55:54 10° N 05:58:46 37° NNE 05:58:46 37° NNE
Cosmos 1666 Rocket 4.5 05:56:05 10° NNW 06:00:20 48° WSW 06:04:38 10° S
STARLINK-1262 4.3 05:57:16 10° W 06:01:19 43° SSW 06:01:44 42° S
Cosmos 1633 Rocket 3.7 05:58:03 10° NNW 06:02:26 56° WSW 06:06:32 12° S
Shenzhou-11 Module 4.2 06:00:06 10° WNW 06:01:12 21° WNW 06:01:12 21° WNW
YAOGAN 6 2.7 06:03:03 77° NW 06:03:03 77° NW 06:06:31 10° NNW
BREEZE-M DEB (TANK) 4.5 06:00:27 10° WSW 06:04:56 61° NNW 06:23:10 10° NE
Meteor 1-25 Rocket 4.1 06:00:41 10° N 06:06:12 66° E 06:07:53 44° SE
STARLINK-1300 4.4 06:02:16 10° W 06:06:17 41° SSW 06:06:29 41° S
Centaur D AC-29 4.0 06:03:45 10° NW 06:06:48 12° NNW 06:08:56 10° N
Cosmos 2100 Rocket 3.9 06:01:58 10° N 06:08:12 88° W 06:14:29 10° S
Cosmos 2219 Rocket 3.7 06:03:12 10° WNW 06:08:18 33° SW 06:13:01 12° S
STARLINK-1026 3.7 06:04:12 10° NW 06:08:07 75° NNW 06:08:07 75° NNW
Meteor 1-18 Rocket 4.3 06:02:54 10° S 06:08:02 53° SE 06:08:02 53° SE
STARLINK-50 3.7 06:05:54 10° WNW 06:09:41 74° W 06:09:41 74° W
STARLINK-1338 4.3 06:07:33 10° WSW 06:10:05 42° SW 06:10:05 42° SW
STARLINK-1013 3.8 06:09:08 10° NW 06:12:52 69° NW 06:12:52 69° NW
FALCON 9 DEB 4.4 06:10:02 10° WSW 06:12:54 42° WNW 06:12:54 42° WNW
Cosmos 1452 Rocket 3.4 06:12:32 10° SSW 06:17:28 68° SSE 06:17:28 68° SSE
STARLINK-1009 4.0 06:14:07 10° WNW 06:17:39 62° WNW 06:17:39 62° WNW
Cosmos 1420 Rocket 4.1 06:15:51 10° SSW 06:21:14 77° WNW 06:24:07 28° N
Cosmos 1980 4.2 06:17:26 10° NW 06:23:02 58° WSW 06:25:38 31° S
STARLINK-1015 4.3 06:19:06 10° WNW 06:22:26 55° WNW 06:22:26 55° WNW
CZ-4C R/B 4.3 06:20:41 10° SSW 06:24:25 16° S 06:24:38 16° S
Cosmos 2061 Rocket 3.8 06:18:42 10° N 06:24:59 81° E 06:28:12 31° SSE
Envisat 3.7 06:21:20 16° S 06:25:23 54° WSW 06:30:22 10° NNW
Feng Yun 1-1 Rocket 4.2 06:27:58 51° S 06:29:24 81° WSW 06:34:52 10° NNW
Meteor 1-20 Rocket 4.3 06:24:14 10° NNW 06:30:00 80° W 06:32:29 37° S
Cosmos 2297 3.8 06:25:46 10° SSW 06:30:33 61° S 06:30:33 61° S
Helios 1A Rocket 3.9 06:33:09 44° W 06:33:09 44° W 06:36:29 10° NW
Cosmos 2016 Rocket 4.0 06:29:13 10° N 06:35:31 86° W 06:39:15 27° S
USA 234 4.2 06:34:22 32° SSE 06:35:52 36° S 06:41:44 10° WSW
Cosmos 1864 Rocket 4.3 06:30:13 10° N 06:36:18 81° ENE 06:36:18 81° ENE
Cosmos 2173 Rocket 4.5 06:31:17 10° NNW 06:37:28 58° WSW 06:43:40 10° S
Lacrosse 5 rocket 3.1 06:38:08 10° NW 06:40:19 29° NW 06:40:19 29° NW
ATLAS 5 CENTAUR R/B 2.8 06:38:00 10° NW 06:45:07 67° SW 06:46:25 55° S
Cosmos 1816 Rocket 4.4 06:38:43 10° S 06:45:10 88° W 06:45:21 85° NNW
Cosmos 371 Rocket 4.5 06:44:29 10° SSW 06:47:37 37° SW 06:47:37 37° SW
Cosmos 2237 Rocket 3.4 06:46:01 10° WNW 06:51:19 39° SW 06:52:55 32° SSW
Cosmos 1943 Rocket 3.9 06:47:08 10° SSW 06:48:59 21° S 06:48:59 21° S
Cosmos 2369 Rocket 4.2 06:48:58 10° SSW 06:50:30 18° S 06:50:30 18° S
ATLAS CENTAUR R/B 4.2 06:54:12 10° SSW 06:54:46 13° SSW 06:54:46 13° SSW
BREEZE-M DEB (TANK) 4.4 06:47:29 10° NW 06:59:38 62° NNW 06:59:38 62° NNW
SL-16 R/B 3.3 07:00:58 10° NNW 07:04:24 38° NW 07:04:24 38° NW
BREEZE M DEB (TANK) 4.0 06:54:59 10° WSW 07:13:12 80° WNW 07:13:12 80° WNW
NOSS 3-4 (A) 4.1 07:07:49 10° SW 07:13:16 54° SW 07:13:16 54° SW
NOSS 3-4 (C) 4.2 07:07:55 10° SW 07:13:20 54° SW 07:13:20 54° SW
ATLAS 2AS CENTAUR R/B 3.8 07:34:37 10° SW 07:38:35 38° WSW 07:38:35 38° WSW
